[Iaude] MPEC O73: 2024 OG [a=1.54,e=0.32,i=3.3,H=25.4]
    mpec at cfa.harvard.edu 
    mpec at cfa.harvard.edu
       
    Sun Jul 28 19:17:57 EDT 2024
    
    
  
M.P.E.C. 2024-O73                                 Issued 2024 July 28, 23:16 UT
     The Minor Planet Electronic Circulars contain information on unusual
         minor planets, routine data on comets and natural satellites,
         and occasional editorial announcements.  They are published
    on behalf of Division F of the International Astronomical Union by the
          Minor Planet Center, Smithsonian Astrophysical Observatory,
                          Cambridge, MA 02138, U.S.A.
			  
             Prepared using the Tamkin Foundation Computer Network
                              MPC at CFA.HARVARD.EDU
            URL https://www.minorplanetcenter.net/    ISSN 1523-6714
                                    2024 OG                                     
Observations:
     K24O00G* C2024 07 27.44604321 35 44.261-20 45 01.19         20.52wXEO073F51
     K24O00G  C2024 07 27.45788821 35 45.132-20 44 05.24         20.47wXEO073F51
     K24O00G  C2024 07 27.46971921 35 45.982-20 43 09.55         20.45wXEO073F51
     K24O00G  C2024 07 27.48154621 35 46.833-20 42 13.54         20.53wXEO073F51
     K24O00G  C2024 07 27.53943621 35 51.013-20 37 37.09         20.36GVEO073F51
     K24O00G  C2024 07 27.54008221 35 51.063-20 37 33.90         20.44GVEO073F51
     K24O00G KB2024 07 27.90941 21 36 41.27 -20 09 22.3                ZEO073M45
     K24O00G KB2024 07 27.91848 21 36 42.07 -20 08 41.2                ZEO073M45
     K24O00G  C2024 07 28.10092821 37 07.15 -19 52 20.0                WEO073X09
     K24O00G  C2024 07 28.11024221 37 07.96 -19 51 38.9                WEO073X09
     K24O00G |C2024 07 28.31700021 37 22.700-19 36 19.70         20.8 GVEO073807
     K24O00G |C2024 07 28.32144021 37 23.040-19 35 59.10         20.5 GVEO073807
     K24O00G |C2024 07 28.32577021 37 23.340-19 35 39.30         20.4 GVEO073807
     K24O00G 3C2024 07 28.53337021 37 47.494-19 22 01.80         20.39GVEO073T14
     K24O00G 3C2024 07 28.53435321 37 47.554-19 21 57.43         20.44GVEO073T14
     K24O00G 3C2024 07 28.53534421 37 47.615-19 21 53.01         20.43GVEO073T14
     K24O00G KC2024 07 28.92185921 38 35.470-18 54 19.22         20.0 GXEO073M57
     K24O00G KC2024 07 28.93787621 38 36.581-18 53 12.48         20.8 GXEO073M57
Observer details:
807 Cerro Tololo Observatory, La Serena.  Observers T. Linder, R. Holmes.
    0.61-m f/6.8 Ritchey-Chretien + CCD.
F51 Pan-STARRS 1, Haleakala.  Observers J. Herman, T. Lowe, P. Minguez, A.
    Schultz, I. Smith.  Measurers K. Chambers, T. de Boer, J. Fairlamb, H.
    Gao, M. Huber, C.-C. Lin, E. Magnier, Y. Ramanjooloo, R. Wainscoat, R.
    Weryk.  1.8-m Ritchey-Chretien + CCD.
M45 Starhopper Observatory, Sfantu Gheorghe.  Observer F. Ursache.  0.41-m
    f/7.5 reflector + CMO.
M57 Wide-field Mufara Telescope, Isnello.  Observer A. Nastasi.  1.00-m f/2.1
    reflector + CCD.
T14 Canada-France-Hawaii Telescope, Maunakea.  Observers R. Wainscoat, J.
    Silva, H. Flewelling.  Measurers R. Weryk, R. Wainscoat.  3.6-m f/4.1
    reflector + CCD.
X09 Deep Random Survey, Rio Hurtado.  Observers A. Schnabel, D. Ruhela.
    Measurer S. Deen.  0.43-m reflector + CMOS.
Orbital elements:
2024 OG                                                  Earth MOID = 0.0413 AU
Epoch 2024 Oct. 17.0 TT = JDT 2460600.5                 MPC                     
M  58.03371              (2000.0)            P               Q                  
n   0.51555658     Peri.  321.00545     +0.05750075     +0.99744867             
a   1.5403467      Node   312.24723     -0.90106465     +0.03360522             
e   0.3237918      Incl.    3.27631     -0.42985598     +0.06298289             
P   1.91           H   25.40          G   0.15           U   8                  
Residuals in seconds of arc
240727 F51  0.0   0.1-    240727 M45  0.4-  0.1+    240728 807  0.1+  0.1+
240727 F51  0.0   0.1+    240727 M45  0.3+  0.1+    240728 T14  0.0   0.1-
240727 F51  0.0   0.0     240728 X09  0.4-  0.4+    240728 T14  0.0   0.1-
240727 F51  0.0   0.0     240728 X09  0.3-  0.9+    240728 T14  0.0   0.1-
240727 F51  0.0   0.3-    240728 807  0.2-  0.2-    240728 M57  0.3-  0.6+
240727 F51  0.0   0.2-    240728 807  0.2+  0.1+    240728 M57  0.1-  0.4+
Ephemeris:
2024 OG                  a,e,i = 1.54, 0.32, 3                   q = 1.0416
Date    TT    R. A. (2000) Decl.     Delta      r    Elong.  Phase     V
2024 06 28    13 30 42.0 -58 44 35   0.05122 1.0414   117.8    59.7    21.2
...
2024 07 13    20 06 35.3 -52 05 17   0.04281 1.0534   148.9    29.9    20.0
...
2024 07 21    21 15 20.5 -31 33 31   0.05449 1.0675   160.2    18.8    20.2
...
2024 07 27    21 34 44.7 -21 19 39   0.06824 1.0812   163.7    15.3    20.6
2024 07 28    21 36 49.3 -20 00 40   0.07082 1.0837   164.2    14.8    20.7
2024 07 29    21 38 40.1 -18 47 15   0.07347 1.0864   164.6    14.4    20.7
...
2024 08 04    21 46 11.9 -13 03 12   0.09075 1.1034   167.4    11.6    21.1
...
2024 08 12    21 50 49.4 -08 23 49   0.1172  1.1294   171.3     7.8    21.6
...
2024 08 27    21 54 17.6 -04 24 50   0.1781  1.1865   170.9     7.8    22.6
A. U. Tomatic                (C) Copyright 2024 MPC           M.P.E.C. 2024-O73
    
    
More information about the Iaude
mailing list